Hourly Data Report for October 04, 2017

All times are specified in Local Standard Time (LST). Add 1 hour to adjust for Daylight Saving Time where and when it is observed.

CLYDE RIVER A
NUNAVUT

70°29'09.000" N
68°31'01.000" W
26.50 m
2400804
71090
YCY

Related Data

No related data is available for this station

Download Data

Hourly Data (October 2017)
Hourly Data Report for October 4, 2017
Temp Definition
°C
Dew Point Temp Definition
°C
Rel Hum Definition
%
Wind Dir Definition
10's deg

Wind Spd Definition
km/h
Visibility Definition
km
Stn Press Definition
kPa
Hmdx Definition


Wind Chill Definition


Weather Definition


TIME
00:00 Legend Double Dagger 0.5 0.1 97 15 9 16.1 97.78     Rain
01:00 Legend Double Dagger 0.3 -2.3 83 23 15 16.1 97.76     LegendNANA
02:00 Legend Double Dagger -0.3 -1.4 92 30 21 4.8 97.80   -6 Snow
03:00 Legend Double Dagger -1.0 -1.6 96 25 21 2.4 97.86   -7 Snow
04:00 Legend Double Dagger -1.7 -2.7 93 24 13 2.8 97.90   -6 Snow
05:00 Legend Double Dagger -2.5 -3.5 93 25 13 2.4 97.94   -7 Snow
06:00 Legend Double Dagger -2.9 -4.0 92 25 21 2.0 98.01   -9 Snow
07:00 Legend Double Dagger -3.0 -4.4 90 27 8 6.4 98.06   -6 Snow
08:00 Legend Double Dagger -3.1 -4.4 91 28 5 2.4 98.10   -5 Snow
09:00 Legend Double Dagger -3.2 -4.2 93 23 8 2.8 98.15   -6 Snow
10:00 Legend Double Dagger -3.5 -4.3 94 29 4 2.0 98.17   -5 Snow
11:00 Legend Double Dagger -3.6 -4.3 95 2 8 4.8 98.22   -7 Snow
12:00 Legend Double Dagger -4.4 -5.2 94 6 8 16.1 98.26   -8 LegendNANA
13:00 Legend Double Dagger -4.6 -5.8 91 3 5 16.1 98.31   -7 LegendNANA
14:00 Legend Double Dagger -8.1 -9.5 90 33 5 16.1 98.37   -11 LegendNANA
15:00 Legend Double Dagger -4.8 -8.9 73 26 5 16.1 98.46   -7 LegendNANA
16:00 Legend Double Dagger -6.2 -9.0 80 26 13 16.1 98.55   -12 LegendNANA
17:00 Legend Double Dagger -9.8 -13.3 76 31 9 16.1 98.65   -15 LegendNANA
18:00 Legend Double Dagger -5.8 -10.4 70 26 24 16.1 98.76   -13 LegendNANA
19:00 Legend Double Dagger -5.3 -8.6 78 22 28 16.1 98.87   -13 LegendNANA
20:00 Legend Double Dagger -4.0 -8.3 72 22 24 16.1 98.99   -11 LegendNANA
21:00 Legend Double Dagger -5.8 -9.9 73 23 8 16.1 99.14   -10 LegendNANA
22:00 Legend Double Dagger -6.0 -10.2 72 21 8 16.1 99.27   -10 LegendNANA
23:00 Legend Double Dagger -6.4 -10.1 75 17 11 16.1 99.36   -11 LegendNANA

Notes on Data Quality.

Legend

  • E = Estimated
  • M = Missing
  • NA = Not Available
  • ‡ = Partner data that is not subject to review by the National Climate Archives
Date modified: